Wind_Speed
4 6 11 9 17 24 21 20 14 14 14 17 15 14 15 14 16 14 13 12 11 11 11 11 12 10 10 11 10 13 13 12 10 11 10 12 13 12 11 12 13 14 13
6 6 9 12 14 23 23 22 19 17 16 16 17 16 17 18 18 16 16 15 13 13 14 14 14 14 11 11 9 11 12 11 12 14 12 12 13 13 13 13 14 14 15
10 10 9 11 15 16 20 21 21 19 19 19 18 18 18 18 19 19 19 19 17 15 17 16 17 17 15 15 15 15 16 14 15 15 14 16 17 17 16 17 19 20 20
12 13 13 12 12 15 18 19 20 20 21 21 19 18 19 20 22 22 22 21 20 19 20 20 20 20 18 19 19 18 20 19 19 19 18 18 19 19 19 19 19 21 21
15 13 14 13 15 15 15 16 18 20 19 20 22 22 22 23 24 24 23 22 21 21 22 22 22 22 22 21 20 21 22 22 21 21 21 22 21 21 22 23 23 24 24
17 16 15 18 18 17 16 16 17 17 18 19 19 21 22 23 23 24 25 24 23 23 22 21 21 21 22 22 23 23 23 24 24 24 24 24 22 24 24 24 25 27 26
23 19 18 19 19 19 18 19 19 19 20 21 22 24 24 24 23 23 24 25 24 23 22 21 21 21 22 22 22 24 25 26 26 26 26 25 25 25 27 26 26 27 27
26 23 21 20 21 19 19 19 20 22 22 22 25 27 26 27 26 26 25 27 27 24 23 24 24 24 25 25 26 27 27 27 27 29 28 26 27 27 28 28 28 30 31
27 27 24 18 19 20 19 18 19 20 19 21 23 26 30 33 33 29 28 28 28 28 28 29 29 29 28 31 33 33 32 30 30 30 30 29 29 29 29 30 30 32 33
27 28 26 23 20 18 16 19 19 22 24 25 25 25 27 27 29 37 31 27 27 30 31 30 28 29 29 30 32 32 33 31 33 33 33 33 32 31 31 32 33 34 35
25 28 29 27 24 21 20 21 21 24 26 26 26 23 21 22 19 25 28 27 29 30 29 28 27 27 26 28 29 30 31 31 33 35 36 34 32 29 29 29 30 32 34
26 28 28 26 25 28 27 25 25 27 26 25 24 23 21 22 24 28 30 30 29 27 27 27 28 27 26 25 24 23 23 24 26 26 26 25 25 26 27 30 32 33 35
31 33 32 27 26 29 28 26 24 25 26 24 25 23 23 22 23 23 25 26 26 26 25 25 25 24 23 22 21 22 22 19 19 21 21 22 24 26 29 30 33 34 31
34 34 38 43 41 41 36 29 27 25 27 26 23 22 21 21 21 21 22 23 24 24 23 22 21 20 21 21 21 20 20 19 20 21 22 22 23 25 28 26 23 23 24
31 34 41 47 48 49 46 35 30 27 29 27 21 20 19 20 21 22 22 23 23 24 23 21 20 20 19 20 20 20 19 18 18 18 20 23 23 21 19 19 19 19 19
34 33 38 44 47 51 44 32 30 33 31 27 20 18 18 19 19 20 21 21 22 22 22 22 21 21 22 22 21 20 19 19 20 20 19 17 16 15 15 14 14 14 15
32 32 38 45 51 51 48 34 33 36 34 27 20 17 15 14 15 17 18 19 20 20 21 21 22 20 19 19 18 18 18 18 17 15 14 14 14 14 14 14 13 12 12
31 33 34 36 40 45 46 40 38 40 35 27 22 18 16 14 12 11 12 14 16 17 20 21 19 17 17 17 18 18 17 16 15 14 14 15 15 15 15 13 12 12 12
26 27 27 26 27 36 38 40 42 41 35 27 24 22 20 17 15 14 13 15 16 17 18 18 18 17 18 18 17 17 16 15 15 15 16 17 17 16 15 14 13 13 12
24 27 25 28 29 31 30 34 35 36 33 27 25 24 22 21 17 16 15 17 17 17 16 17 19 19 20 19 18 19 18 17 17 18 18 19 18 17 16 15 16 14 12
19 24 17 27 38 33 31 25 28 30 26 27 25 25 24 23 21 20 19 19 21 21 18 18 20 21 21 20 19 19 19 18 20 21 20 20 18 18 17 17 17 15 13
19 20 24 35 35 38 26 22 22 23 24 24 23 23 23 25 23 20 20 24 25 22 21 23 23 22 21 21 20 21 21 21 22 22 21 21 20 19 18 17 16 14 13
19 17 18 23 39 32 30 21 23 26 23 22 24 25 25 24 23 26 26 28 28 25 24 25 25 23 21 21 21 20 20 21 22 23 22 20 20 18 17 16 14 15 14
20 19 24 24 28 30 28 25 21 23 26 25 24 24 25 24 26 30 31 28 26 25 27 27 24 22 22 22 21 21 21 22 22 21 20 18 18 18 17 17 16 17 16
23 24 24 32 31 30 28 25 23 23 25 26 26 28 28 24 24 24 23 24 23 23 23 25 24 24 23 22 22 22 22 22 22 21 20 19 17 18 18 18 17 17 17
22 23 23 27 25 22 22 22 25 23 21 22 21 21 22 21 22 23 23 22 22 22 24 25 24 25 25 24 22 23 23 23 23 21 20 20 20 18 19 18 17 17 17
Wind_Direction
212 230 223 219 205 203 198 200 205 219 226 226 226 237 241 247 247 246 242 240 241 247 253 254 251 258 260 253 255 258 258 257 255 262 249 245 261 262 277 272 260 277 273
214 199 220 214 210 208 206 214 222 230 216 218 233 242 242 247 241 254 247 245 239 240 247 250 244 251 253 262 265 261 263 264 262 263 251 249 258 254 265 268 260 267 271
229 205 205 216 219 217 213 218 222 228 236 238 237 241 245 239 240 245 248 245 248 246 250 249 248 253 253 257 263 266 270 273 273 273 272 268 264 259 259 260 262 266 266
227 230 216 210 214 219 221 222 229 232 239 246 245 240 239 240 239 238 243 244 246 245 249 253 252 254 255 258 264 268 272 273 274 279 280 280 276 273 265 261 263 266 268
225 235 232 217 213 210 214 220 230 235 238 244 248 244 240 241 244 248 251 252 252 252 252 255 255 255 257 260 266 270 271 276 279 278 280 283 285 286 278 271 268 266 270
232 235 231 222 218 209 209 217 224 233 237 241 247 250 247 246 247 249 253 252 252 254 256 258 259 259 260 265 267 265 268 272 276 278 277 279 281 278 280 277 277 276 276
228 234 232 223 223 221 219 223 228 235 241 246 249 252 252 244 243 245 250 253 254 256 259 264 263 260 260 263 267 270 272 273 272 271 272 276 277 279 277 282 283 284 285
224 228 224 223 224 226 227 232 235 238 242 251 256 257 258 255 249 241 242 250 253 255 261 262 263 265 269 269 266 268 270 273 273 275 277 276 278 278 279 281 281 283 283
225 230 227 224 222 229 225 233 245 246 251 256 264 265 269 266 256 246 243 246 252 255 259 262 263 262 264 264 266 269 269 268 267 267 270 273 275 274 274 276 279 280 283
225 224 231 228 229 226 235 245 245 256 259 258 260 255 260 289 247 239 242 249 254 259 259 261 261 262 261 261 265 269 270 268 264 265 267 270 274 275 275 278 281 284 286
220 226 225 226 221 226 228 234 241 248 255 259 259 258 262 276 235 235 247 254 256 258 259 257 256 258 259 260 262 266 267 265 264 267 270 272 272 271 275 280 283 285 287
237 226 224 225 235 237 237 243 240 248 249 252 254 257 258 253 250 248 250 251 251 253 255 257 261 263 265 264 262 264 266 264 261 263 266 266 270 274 277 282 286 289 290
250 233 234 243 242 242 233 237 245 249 247 241 251 255 256 259 254 253 248 246 249 250 254 257 261 262 260 263 263 262 264 266 262 264 267 273 274 277 279 282 286 291 293
251 241 232 236 239 241 244 249 242 242 248 244 247 253 259 260 257 253 252 249 248 248 250 254 255 255 256 259 262 265 266 267 267 268 269 271 274 279 284 287 290 293 296
249 250 237 232 239 244 240 252 239 244 239 243 243 248 253 255 258 255 253 253 254 253 251 247 247 250 255 260 263 262 262 264 265 267 273 279 282 283 286 291 293 296 299
260 259 252 244 240 242 251 245 245 235 231 233 239 242 244 247 249 254 255 256 255 254 253 251 250 253 257 261 262 260 260 263 270 276 276 275 279 286 290 291 294 297 300
267 253 267 255 247 244 244 236 235 225 222 226 233 235 239 247 253 255 258 259 258 256 253 251 251 252 254 253 253 256 263 269 272 271 272 281 288 291 291 291 296 297 306
255 263 273 264 248 242 223 226 220 223 221 225 232 234 238 246 257 261 270 277 267 259 253 249 246 244 244 248 255 260 263 262 264 268 276 282 287 290 288 292 292 293 297
260 261 253 243 227 210 203 208 214 218 221 226 233 237 242 247 249 261 272 275 272 257 250 248 245 243 245 249 255 259 258 259 263 269 276 280 286 287 286 286 286 285 289
250 241 244 224 212 194 192 202 209 214 223 230 239 241 246 252 247 258 273 281 281 268 245 239 239 244 247 250 254 255 254 259 265 271 274 275 282 286 285 281 284 284 289
240 236 270 238 211 193 189 199 212 219 231 236 242 246 249 252 248 260 270 282 293 277 252 240 243 245 249 251 250 255 257 260 267 269 271 272 277 281 281 283 285 285 287
245 248 241 225 216 195 188 201 216 231 238 244 247 250 253 254 256 260 272 285 277 259 248 243 242 245 248 249 245 249 256 261 267 269 268 269 273 276 276 277 280 281 281
239 254 244 222 190 189 194 216 237 246 260 247 242 244 247 249 259 270 275 280 271 254 242 241 241 241 242 245 248 250 255 260 263 269 271 265 262 265 266 268 268 273 274
224 215 182 178 188 198 215 228 242 256 255 236 237 243 250 265 271 276 274 264 255 250 248 243 242 243 243 245 249 251 255 259 262 267 269 257 255 259 262 262 262 263 267
229 227 219 216 214 214 218 231 245 243 237 236 241 248 254 255 256 260 258 250 244 239 239 243 240 242 245 245 248 250 254 255 253 257 260 258 259 257 258 260 264 265 266
226 227 227 218 213 223 233 239 239 232 224 229 244 255 254 249 247 250 247 246 244 240 235 238 241 247 251 251 248 247 249 251 254 258 258 256 256 250 254 255 257 261 264
Height
3160 3161 3164 3166 3168 3171 3176 3179 3182 3184 3186 3188 3191 3194 3196 3197 3199 3201 3202 3203 3204 3204 3205 3206 3207 3209 3209 3210 3210 3210 3211 3212 3211 3211 3212 3212 3212 3212 3212 3211 3212 3213 3213
3158 3159 3162 3164 3166 3169 3172 3176 3178 3183 3184 3186 3188 3191 3192 3194 3196 3198 3200 3200 3201 3201 3203 3204 3204 3205 3206 3207 3208 3208 3209 3208 3208 3208 3208 3208 3209 3208 3208 3208 3208 3209 3210
3156 3156 3158 3160 3163 3166 3169 3172 3174 3178 3181 3183 3184 3186 3188 3191 3193 3195 3196 3196 3197 3198 3199 3200 3201 3201 3203 3203 3204 3205 3206 3205 3205 3206 3205 3205 3205 3205 3205 3205 3205 3206 3206
3152 3154 3155 3157 3159 3162 3166 3168 3171 3173 3176 3179 3181 3182 3184 3186 3188 3190 3192 3193 3194 3194 3195 3196 3198 3198 3199 3199 3200 3201 3201 3202 3202 3202 3202 3202 3203 3203 3203 3202 3202 3201 3201
3149 3151 3153 3154 3156 3158 3161 3164 3167 3169 3172 3174 3177 3179 3180 3181 3183 3185 3186 3188 3189 3190 3191 3193 3194 3195 3195 3195 3196 3197 3197 3198 3198 3198 3199 3199 3199 3198 3198 3198 3197 3196 3197
3145 3147 3149 3150 3151 3154 3156 3160 3163 3165 3167 3169 3172 3175 3176 3177 3179 3180 3181 3182 3183 3184 3186 3188 3189 3190 3191 3191 3192 3192 3192 3193 3193 3193 3193 3193 3194 3193 3192 3191 3191 3191 3192
3139 3142 3144 3146 3148 3149 3152 3155 3158 3161 3162 3164 3167 3168 3170 3171 3173 3175 3176 3177 3178 3180 3181 3182 3183 3184 3185 3186 3186 3186 3186 3187 3187 3187 3186 3186 3186 3187 3186 3186 3186 3185 3185
3133 3136 3139 3141 3144 3146 3147 3151 3154 3155 3157 3158 3160 3162 3165 3167 3168 3168 3168 3170 3172 3174 3176 3177 3177 3178 3178 3179 3180 3181 3181 3181 3181 3181 3182 3182 3181 3180 3180 3179 3179 3178 3177
3126 3131 3133 3135 3138 3141 3142 3145 3147 3149 3150 3152 3154 3156 3158 3162 3164 3163 3163 3164 3167 3169 3170 3170 3170 3171 3173 3171 3171 3172 3174 3175 3174 3174 3174 3174 3174 3174 3174 3173 3172 3170 3169
3120 3123 3127 3130 3131 3134 3137 3139 3139 3141 3143 3144 3146 3149 3150 3149 3147 3155 3157 3157 3159 3161 3162 3163 3164 3164 3165 3164 3164 3164 3164 3167 3166 3166 3166 3167 3168 3168 3167 3166 3165 3163 3161
3112 3117 3119 3122 3124 3126 3130 3132 3134 3135 3137 3138 3138 3141 3144 3143 3143 3147 3148 3149 3152 3153 3155 3156 3156 3157 3158 3158 3157 3158 3158 3158 3158 3158 3159 3159 3159 3160 3160 3159 3157 3155 3153
3105 3108 3111 3115 3118 3120 3122 3124 3127 3129 3130 3132 3133 3134 3136 3137 3138 3140 3142 3144 3145 3146 3147 3148 3149 3149 3150 3150 3150 3151 3151 3150 3150 3151 3152 3152 3153 3153 3152 3151 3149 3147 3144
3098 3099 3104 3106 3109 3112 3114 3117 3119 3123 3124 3125 3127 3127 3128 3129 3131 3132 3133 3134 3136 3137 3139 3139 3140 3141 3143 3144 3144 3144 3145 3145 3145 3146 3146 3147 3147 3146 3145 3144 3142 3140 3137
3087 3091 3092 3095 3097 3104 3107 3110 3111 3115 3119 3119 3120 3120 3120 3121 3124 3126 3126 3127 3128 3130 3131 3132 3134 3135 3136 3137 3138 3138 3139 3139 3140 3141 3141 3140 3140 3139 3138 3136 3134 3132 3130
3076 3080 3083 3086 3089 3092 3097 3101 3104 3106 3110 3113 3113 3114 3114 3116 3118 3119 3121 3122 3123 3124 3126 3127 3129 3130 3131 3132 3133 3134 3134 3134 3135 3135 3135 3135 3134 3133 3131 3130 3129 3127 3125
3066 3069 3072 3075 3079 3082 3086 3091 3095 3098 3103 3106 3107 3108 3109 3110 3111 3113 3114 3116 3117 3118 3120 3122 3123 3124 3125 3126 3127 3128 3129 3129 3130 3130 3130 3130 3129 3128 3127 3125 3123 3122 3120
3055 3057 3056 3058 3064 3070 3075 3081 3087 3092 3098 3099 3100 3101 3103 3104 3106 3108 3109 3110 3111 3113 3115 3116 3117 3118 3119 3120 3122 3123 3123 3124 3124 3125 3125 3125 3124 3123 3123 3121 3120 3118 3116
3044 3044 3043 3044 3046 3052 3060 3071 3079 3085 3090 3092 3094 3095 3097 3099 3101 3103 3104 3105 3106 3107 3109 3109 3110 3112 3113 3115 3117 3118 3119 3119 3119 3120 3121 3121 3121 3120 3118 3117 3116 3115 3113
3035 3035 3034 3036 3038 3043 3052 3060 3069 3076 3081 3083 3087 3089 3091 3093 3095 3098 3099 3099 3100 3101 3102 3104 3106 3107 3108 3109 3111 3112 3113 3114 3115 3115 3116 3116 3116 3116 3115 3114 3113 3111 3110
3027 3029 3029 3031 3037 3039 3045 3053 3061 3067 3073 3076 3079 3082 3085 3088 3089 3093 3094 3095 3095 3096 3097 3099 3101 3102 3103 3104 3104 3106 3107 3108 3110 3111 3111 3112 3112 3111 3111 3110 3110 3108 3106
3021 3022 3022 3024 3030 3032 3039 3048 3054 3059 3065 3069 3072 3075 3078 3081 3083 3087 3088 3089 3090 3090 3091 3093 3094 3096 3098 3099 3100 3102 3103 3103 3105 3105 3106 3106 3106 3106 3105 3105 3104 3103 3102
3016 3016 3018 3021 3023 3029 3034 3040 3047 3053 3058 3062 3065 3069 3072 3075 3078 3081 3082 3082 3082 3082 3084 3086 3087 3089 3090 3091 3093 3094 3096 3097 3098 3099 3099 3099 3099 3099 3099 3099 3099 3099 3098
3013 3013 3011 3008 3016 3025 3032 3039 3044 3048 3052 3056 3059 3062 3066 3069 3072 3073 3074 3074 3074 3075 3076 3078 3081 3083 3084 3086 3086 3087 3089 3090 3090 3091 3092 3092 3092 3092 3092 3092 3093 3093 3093
3010 3013 3015 3017 3022 3028 3034 3040 3043 3046 3048 3051 3055 3057 3060 3064 3064 3065 3065 3065 3066 3067 3069 3071 3074 3076 3077 3078 3080 3080 3080 3081 3082 3083 3083 3084 3085 3086 3087 3087 3086 3086 3086
3008 3011 3014 3018 3023 3027 3030 3034 3036 3038 3042 3046 3049 3052 3054 3055 3055 3056 3056 3057 3057 3058 3061 3066 3067 3068 3069 3070 3071 3072 3073 3074 3074 3075 3075 3076 3078 3079 3080 3080 3080 3080 3080
3005 3008 3011 3013 3017 3022 3026 3028 3030 3034 3038 3041 3043 3045 3047 3047 3048 3049 3050 3050 3052 3054 3055 3057 3059 3062 3062 3062 3063 3064 3065 3066 3067 3068 3068 3069 3070 3071 3072 3073 3074 3074 3074